{"data":{"norad_id":59013,"epoch":"2026-09-20T22:37:20.265024Z","epoch_age_seconds":118227,"freshness":"FRESH","line1":"1 59013U 24036R   26263.94259566 -.00000033  00000+0  10693-4 0  9997","line2":"2 59013  53.1572 250.7495 0000962  90.9303 269.1809 15.31698003145232","mean_motion":15.31698003,"eccentricity":9.62e-5,"inclination_deg":53.1572,"raan_deg":250.7495,"arg_perigee_deg":90.9303,"mean_anomaly_deg":269.1809,"bstar":1.0693e-5,"rev_number":14523,"period_min":94.013310533774,"perigee_km":470.08708564558,"apogee_km":471.40481072481,"semimajor_km":6848.8829481852,"source":"CELESTRAK","updated_at":"2026-09-21T09:00:34.026048Z"}}